Regional Weather Roundup
Issued by NWS

Home | Current Version | Previous Version | Graphics & Text | Print | Product List | Glossary On
Versions: 1 2 3 4 5 6 7 8 9 10 11 12 13 14 15 16 17 18 19 20 21 22 23 24 25 26 27
000
ASUS45 KCYS 252010
RWRWY

WYOMING REGIONAL WEATHER ROUNDUP
NATIONAL WEATHER SERVICE CHEYENNE WY
200 PM MDT MON SEP 25 2017

NOTE:  "FAIR" INDICATES FEW OR NO CLOUDS BELOW 12,000 FEET
WITH NO SIGNIFICANT WEATHER AND/OR OBSTRUCTIONS TO VISIBILITY.

WYZ001-252100-
YELLOWSTONE NATIONAL PARK

CITY           SKY/WX    TMP DP  RH WIND       PRES   REMARKS
LK YELLOWSTONE NOT AVBL
W YELLOWSTONE  NOT AVBL

$$
WYZ002>013-054>058-071-098>099-252100-
NORTHERN WYOMING

CITY           SKY/WX    TMP DP  RH WIND       PRES   REMARKS
JACKSON        CLOUDY    46  28  49 SW10      30.11F
CODY           CLOUDY    49  31  49 NE5       30.08F
GREYBULL       FAIR      50  42  74 E3        30.08F
WORLAND        CLOUDY    50  40  68 CALM      30.08F
SHERIDAN       CLOUDY    53  38  56 VRB5      30.08F
BUFFALO        CLOUDY    46  37  71 E6        30.09F
GILLETTE       CLOUDY    47  39  74 W5        30.08F
HULETT         CLOUDY    46  41  81 CALM      30.10F
NEWCASTLE      CLOUDY    46  37  71 S5        30.10F

$$
WYZ014>020-022>026-101>103-252100-
CENTRAL WYOMING

CITY           SKY/WX    TMP DP  RH WIND       PRES   REMARKS
BIG PINEY      PTSUNNY   47  30  51 E3        30.12F
PINEDALE       MOCLDY    43  32  65 W6        30.13S
DUBOIS         CLOUDY    41  28  60 W10       30.09S
LANDER         CLOUDY    48  34  58 NE5       30.08F
RIVERTON       CLOUDY    47  33  58 VRB3      30.09F
CASPER         CLOUDY    47  37  68 SW10      30.09F
DOUGLAS        CLOUDY    49  37  63 W12       30.10F

$$
WYZ021-027>030-104>119-252100-
SOUTHERN WYOMING

CITY           SKY/WX    TMP DP  RH WIND       PRES   REMARKS
EVANSTON       CLOUDY    44  29  55 W6        30.14F
FORT BRIDGER   FAIR      47  29  50 W9        30.17S
ROCK SPRINGS   CLOUDY    44  30  57 W10G20    30.12F
DIXON          CLOUDY    48  32  53 W5        30.14F
RAWLINS        CLOUDY    45  32  60 W12       30.11F
SARATOGA       CLOUDY    43  32  65 W6        30.12F
LARAMIE        PTSUNNY   49  30  48 CALM      30.07F
CHEYENNE       FAIR      52  37  56 VRB5      30.08F
TORRINGTON     CLOUDY    51  38  60 N6        30.08F
PINE BLUFFS    CLOUDY    50  41  71 CALM      30.09F

$$




USA.gov is the U.S. government's official web portal to all federal, state and local government web resources and services.